Regional Weather Roundup
Issued by NWS

Home | Current Version | Previous Version | Graphics & Text | Print | Product List | Glossary On
Versions: 1 2 3 4 5 6 7 8 9 10 11 12 13 14 15 16 17 18 19 20 21 22 23 24 25 26 27 28 29 30 31 32 33 34 35 36 37 38 39 40 41 42 43 44 45 46 47 48 49 50
000
ASUS44 KMEG 210210
RWRTN
TENNESSEE HOURLY STATE WEATHER ROUNDUP
NATIONAL WEATHER SERVICE MEMPHIS TN
800 PM CST FRI JAN 20 2017

TNZ002-004-019-021-049-052-054-088>092-210300-
WEST TENNESSEE

CITY           SKY/WX    TMP DP  RH WIND       PRES   REMARKS
MEMPHIS INTL   MOCLDY    62  56  80 S9        29.69R
NWS MEMPHIS      N/A     63 N/A N/A MISG        N/A
JACKSON        PTCLDY    62  55  77 S9        29.71R
DYERSBURG      CLOUDY    61  52  72 S7        29.68R
UNION CITY     CLEAR     57  55  94 CALM      29.67S
PARIS          CLEAR     55  52  88 CALM      29.70F
HUNTINGDON     CLEAR     59  55  88 SE7       29.69F
$$

TNZ008-025-027-028-033-062-065-066-210300-
NORTH MIDDLE TENNESSEE

CITY           SKY/WX    TMP DP  RH WIND       PRES   REMARKS
NASHVILLE      PTCLDY    60  51  72 S5        29.76R
PORTLAND       CLEAR     59  52  77 S9        29.75S
CLARKSVILLE    PTCLDY    57  50  77 S5        29.73S
SMYRNA         PTCLDY    59  52  77 S6        29.78R
GALLATIN       CLEAR     59  52  77 CALM      29.79R
CROSSVILLE     CLOUDY    56  48  74 S5        29.83S
$$

TNZ061-075-076-078-094-096-097-210300-
SOUTH MIDDLE TENNESSEE

CITY           SKY/WX    TMP DP  RH WIND       PRES   REMARKS
TULLAHOMA      CLEAR     59  50  72 SE5       29.80S
WINCHESTER     CLEAR     54  48  82 CALM      29.81S
MCMINNVILLE    CLEAR     57  52  82 CALM      29.80R
COLUMBIA       CLEAR     63  61  94 S7        29.74F
SHELBYVILLE    CLEAR     63  54  72 S6        29.79R
$$

TNZ017-018-042-046-047-210300-
NORTHEAST TENNESSEE

CITY           SKY/WX    TMP DP  RH WIND       PRES   REMARKS
TRI CITIES     PTCLDY    49  46  90 CALM      29.86R
ELIZABETHTON   CLEAR     52  48  87 CALM      29.87R
$$

TNZ012-013-036-069-073-074-210300-
CENTRAL EAST TENNESSEE

CITY           SKY/WX    TMP DP  RH WIND       PRES   REMARKS
KNOXVILLE      MOCLDY    58  50  75 SE3       29.83R
OAK RIDGE      MOCLDY    55  50  83 CALM      29.84R
GATLINBURG     CLEAR     50  46  87 CALM      29.84R
MORRISTOWN     MOCLDY    54  50  87 CALM      29.84R
JACKSBORO      CLEAR     50  50 100 CALM      29.86R
$$

TNZ083-085-099-210300-
SOUTHEAST TENNESSEE

CITY           SKY/WX    TMP DP  RH WIND       PRES   REMARKS
CHATTANOOGA    MOCLDY    56  52  86 CALM      29.83R
$$

SKY/WX REPORTED AS FAIR MEANS FEW OR NO CLOUDS BELOW
12 THOUSAND FEET.





USA.gov is the U.S. government's official web portal to all federal, state and local government web resources and services.